Home   Weather   Deline   Past weeks
Flag for Canada

Past Weather in Deline, Northwest Territories, Canada — Yesterday and Last 2 Weeks

Now
50 °F

Cool.


Feels Like: 50 °F
Forecast: 54 / 40 °F
Wind: 2 mph from North

Location: Deline

Current Time: Aug 23, 2019 at 10:34:17 pm

Latest Report: Aug 23, 2019 at 10:00 pm


Visibility: N/A

Pressure: 29.51 "Hg

Humidity: 85%

Dew Point: 46 °F

Location of DelineLocation

Past Weather in Deline — Graph

°F

Deline Temperature Yesterday

Maximum temperature yesterday: 55 °F (at 2:00 pm)
Minimum temperature yesterday: 41 °F (at 11:00 pm)
Average temperature yesterday: 48 °F

High & Low Weather Summary for the Past Weeks

 TemperatureHumidityPressure
High61 °F (Aug 14, 7:00 pm)100% (Aug 11, 1:00 am)30.29 "Hg (Aug 11, 1:00 am)
Low31 °F (Aug 9, 6:00 am)38% (Aug 9, 5:00 pm)29.49 "Hg (Aug 22, 2:00 am)
Average46 °F79%29.96 "Hg
* Reported Aug 8 9:00 pm — Aug 23 9:00 pm, Deline. Weather by CustomWeather, © 2019

Note: Actual official high and low records may vary slightly from our data, if they occured in-between our weather recording intervals... More about our weather records

Advertising

Deline Weather History for the Previous 24 Hours

Scroll right to see more
 ConditionsComfort  
Time TempWeatherWind HumidityBarometerVisibility
9:00 pm
Fri, Aug 23
53 °FCool.1 mph72%29.51 "HgN/A
8:00 pm55 °FCool.3 mph64%29.51 "HgN/A
7:00 pm57 °FRefreshingly cool.7 mph57%29.51 "HgN/A
6:00 pm54 °FCool.8 mph63%29.52 "HgN/A
5:00 pm57 °FRefreshingly cool.10 mph57%29.52 "HgN/A
4:00 pm56 °FRefreshingly cool.12 mph57%29.54 "HgN/A
3:00 pm54 °FCool.13 mph59%29.55 "HgN/A
2:00 pm54 °FCool.15 mph58%29.56 "HgN/A
1:00 pm51 °FCool.13 mph63%29.59 "HgN/A
12:00 pm52 °FCool.13 mph57%29.59 "HgN/A
11:00 am50 °FCool.9 mph55%29.61 "HgN/A
10:00 am48 °FCool.10 mph57%29.62 "HgN/A
9:00 am45 °FCool.9 mph62%29.63 "HgN/A
8:00 am41 °FQuite cool.6 mph80%29.64 "HgN/A
7:00 am37 °FChilly.6 mph86%29.65 "HgN/A
6:00 am36 °FChilly.3 mph91%29.65 "HgN/A
5:00 am39 °FChilly.3 mph87%29.65 "HgN/A
4:00 am38 °FChilly.7 mph91%29.65 "HgN/A
3:00 am37 °FChilly.3 mph93%29.66 "HgN/A
2:00 am37 °FChilly.3 mph93%29.67 "HgN/A
1:00 am37 °FChilly.3 mph95%29.66 "HgN/A
12:00 am35 °FChilly.2 mph92%29.66 "HgN/A
11:00 pm
Thu, Aug 22
41 °FQuite cool.5 mph82%29.65 "HgN/A
10:00 pm47 °FCool.6 mph70%29.65 "HgN/A
Weather by CustomWeather, © 2019

See weather overview